Time,TemperatureF,DewpointF,PressureIn,WindDirection,WindDirectionDegrees,WindSpeedMPH,WindSpeedGustMPH,Humidity,HourlyPrecipIn,Conditions,Clouds,dailyrainin,SoftwareType,DateUTC
2013-02-21 00:01:00,45.0,38.5,30.00,NE,45,3.1,3.1,78,0.00,,,0.00,,2013-02-20 23:01:00,
2013-02-21 00:06:00,44.8,38.3,30.00,NE,45,3.1,4.0,78,0.00,,,0.00,,2013-02-20 23:06:00,
2013-02-21 00:11:00,44.6,38.1,30.00,NE,45,3.1,3.1,78,0.00,,,0.00,,2013-02-20 23:11:00,
2013-02-21 00:16:00,44.6,38.5,30.00,NE,45,2.6,3.5,79,0.00,,,0.00,,2013-02-20 23:16:00,
2013-02-21 00:21:00,44.6,38.5,30.00,NE,45,3.1,3.1,79,0.00,,,0.00,,2013-02-20 23:21:00,
2013-02-21 00:26:00,44.8,38.7,29.97,NE,45,3.1,4.0,79,0.00,,,0.00,,2013-02-20 23:26:00,
2013-02-21 00:36:00,44.6,38.1,30.00,NE,45,3.5,4.0,78,0.00,,,0.00,,2013-02-20 23:36:00,
2013-02-21 00:41:00,44.4,37.9,30.00,NE,45,3.5,4.0,78,0.00,,,0.00,,2013-02-20 23:41:00,
2013-02-21 00:46:00,44.4,37.9,30.00,NE,45,3.1,4.0,78,0.00,,,0.00,,2013-02-20 23:46:00,
2013-02-21 00:51:00,44.2,37.8,30.00,NE,45,3.1,3.1,78,0.00,,,0.00,,2013-02-20 23:51:00,
2013-02-21 00:56:00,44.2,38.1,30.00,NE,45,3.1,4.0,79,0.00,,,0.00,,2013-02-20 23:56:00,
2013-02-21 01:01:00,44.1,37.9,30.00,NE,45,3.5,4.0,79,0.00,,,0.00,,2013-02-21 00:01:00,
2013-02-21 01:06:00,44.1,37.9,29.97,NE,45,3.1,4.0,79,0.00,,,0.00,,2013-02-21 00:06:00,
2013-02-21 01:11:00,44.1,37.9,29.97,NE,45,2.6,4.0,79,0.00,,,0.00,,2013-02-21 00:11:00,
2013-02-21 01:16:00,44.2,38.1,29.97,NE,45,2.2,2.6,79,0.00,,,0.00,,2013-02-21 00:16:00,
2013-02-21 01:21:00,44.2,38.1,29.97,NE,45,1.7,3.1,79,0.00,,,0.00,,2013-02-21 00:21:00,
2013-02-21 01:26:00,43.9,37.4,29.97,North,0,3.1,4.4,78,0.00,,,0.00,,2013-02-21 00:26:00,
2013-02-21 01:31:00,43.7,37.6,29.97,NE,45,3.1,4.0,79,0.00,,,0.00,,2013-02-21 00:31:00,
2013-02-21 01:36:00,43.3,37.2,29.97,NNE,22,3.1,3.5,79,0.00,,,0.00,,2013-02-21 00:36:00,
2013-02-21 01:41:00,43.0,36.9,29.97,NE,45,3.1,5.3,79,0.00,,,0.00,,2013-02-21 00:41:00,
2013-02-21 01:46:00,42.6,36.5,29.97,NE,45,3.5,4.4,79,0.00,,,0.00,,2013-02-21 00:46:00,
2013-02-21 01:51:00,42.4,36.3,29.97,North,0,4.0,4.9,79,0.00,,,0.00,,2013-02-21 00:51:00,
2013-02-21 01:56:00,42.3,36.5,29.97,NE,45,3.5,5.3,80,0.00,,,0.00,,2013-02-21 00:56:00,
2013-02-21 02:01:00,41.9,36.1,29.97,NE,45,4.0,4.4,80,0.00,,,0.00,,2013-02-21 01:01:00,
2013-02-21 02:06:00,41.9,36.3,29.97,NE,45,3.5,4.4,81,0.00,,,0.00,,2013-02-21 01:06:00,
2013-02-21 02:11:00,41.7,36.1,29.97,NE,45,4.0,4.9,81,0.00,,,0.00,,2013-02-21 01:11:00,
2013-02-21 02:16:00,41.5,36.1,29.97,North,0,4.0,4.9,81,0.00,,,0.00,,2013-02-21 01:16:00,
2013-02-21 02:21:00,41.5,36.1,29.97,NNE,22,3.1,5.8,81,0.00,,,0.00,,2013-02-21 01:21:00,
2013-02-21 02:26:00,41.5,36.1,29.97,NE,45,4.0,4.9,81,0.00,,,0.00,,2013-02-21 01:26:00,
2013-02-21 02:31:00,41.4,36.0,29.97,NE,45,3.1,3.1,81,0.00,,,0.00,,2013-02-21 01:31:00,
2013-02-21 02:36:00,41.4,36.0,29.97,North,0,3.5,3.5,81,0.00,,,0.00,,2013-02-21 01:36:00,
2013-02-21 02:41:00,41.2,35.8,29.97,North,0,4.0,4.4,81,0.00,,,0.00,,2013-02-21 01:41:00,
2013-02-21 02:46:00,41.2,36.0,29.94,North,0,4.4,4.4,82,0.00,,,0.00,,2013-02-21 01:46:00,
2013-02-21 02:51:00,41.0,35.8,29.94,NE,45,4.4,4.9,82,0.00,,,0.00,,2013-02-21 01:51:00,
2013-02-21 02:56:00,41.0,35.8,29.94,North,0,3.5,4.0,82,0.00,,,0.00,,2013-02-21 01:56:00,
2013-02-21 03:01:00,41.0,35.8,29.94,NE,45,3.5,5.3,82,0.00,,,0.00,,2013-02-21 02:01:00,
2013-02-21 03:06:00,41.0,35.8,29.94,NE,45,3.5,4.4,82,0.00,,,0.00,,2013-02-21 02:06:00,
2013-02-21 03:11:00,41.0,35.8,29.94,NE,45,3.1,3.5,82,0.00,,,0.00,,2013-02-21 02:11:00,
2013-02-21 03:16:00,41.0,35.8,29.94,NE,45,4.0,5.3,82,0.00,,,0.00,,2013-02-21 02:16:00,
2013-02-21 03:21:00,40.8,35.6,29.94,NE,45,3.5,4.4,82,0.00,,,0.00,,2013-02-21 02:21:00,
2013-02-21 03:26:00,40.8,35.4,29.91,NE,45,4.4,4.4,81,0.00,,,0.00,,2013-02-21 02:26:00,
2013-02-21 03:31:00,40.8,35.4,29.91,NE,45,3.1,4.4,81,0.00,,,0.00,,2013-02-21 02:31:00,
2013-02-21 03:36:00,40.6,35.2,29.91,North,0,3.1,3.5,81,0.00,,,0.00,,2013-02-21 02:36:00,
2013-02-21 03:41:00,40.6,35.4,29.91,NE,45,3.5,4.0,82,0.00,,,0.00,,2013-02-21 02:41:00,
2013-02-21 03:51:00,40.6,35.4,29.94,NE,45,3.1,4.0,82,0.00,,,0.00,,2013-02-21 02:51:00,
2013-02-21 04:01:00,40.6,35.2,29.91,NE,45,4.0,4.0,81,0.00,,,0.00,,2013-02-21 03:01:00,
2013-02-21 04:06:00,40.6,35.2,29.91,NE,45,3.5,4.9,81,0.00,,,0.00,,2013-02-21 03:06:00,
2013-02-21 04:16:00,40.5,35.1,29.91,NE,45,3.5,4.9,81,0.00,,,0.00,,2013-02-21 03:16:00,
2013-02-21 04:21:00,40.5,35.1,29.91,NE,45,3.1,3.1,81,0.00,,,0.00,,2013-02-21 03:21:00,
2013-02-21 04:26:00,40.5,35.1,29.91,NE,45,2.2,4.4,81,0.00,,,0.00,,2013-02-21 03:26:00,
2013-02-21 04:31:00,40.3,34.9,29.91,NE,45,3.5,4.4,81,0.00,,,0.00,,2013-02-21 03:31:00,
2013-02-21 04:36:00,40.3,34.9,29.88,NE,45,3.5,4.4,81,0.00,,,0.00,,2013-02-21 03:36:00,
2013-02-21 04:41:00,40.3,34.9,29.88,NE,45,3.1,4.0,81,0.00,,,0.00,,2013-02-21 03:41:00,
2013-02-21 04:46:00,40.5,35.1,29.88,East,90,3.1,4.0,81,0.00,,,0.00,,2013-02-21 03:46:00,
2013-02-21 04:56:00,40.6,35.2,29.88,NE,45,2.6,4.9,81,0.00,,,0.00,,2013-02-21 03:56:00,
2013-02-21 05:01:00,40.8,35.4,29.88,NE,45,2.6,3.5,81,0.00,,,0.00,,2013-02-21 04:01:00,
2013-02-21 05:06:00,40.6,35.2,29.88,NE,45,3.1,5.3,81,0.00,,,0.00,,2013-02-21 04:06:00,
2013-02-21 05:11:00,40.5,35.1,29.88,NE,45,3.5,5.8,81,0.00,,,0.00,,2013-02-21 04:11:00,
2013-02-21 05:16:00,40.5,35.1,29.88,NNE,22,2.6,4.0,81,0.00,,,0.00,,2013-02-21 04:16:00,
2013-02-21 05:21:00,40.3,34.9,29.88,NE,45,2.2,2.2,81,0.00,,,0.00,,2013-02-21 04:21:00,
2013-02-21 05:26:00,40.1,34.7,29.88,NE,45,2.6,4.4,81,0.00,,,0.00,,2013-02-21 04:26:00,
2013-02-21 05:31:00,40.1,34.7,29.88,NE,45,2.2,4.4,81,0.00,,,0.00,,2013-02-21 04:31:00,
2013-02-21 05:36:00,40.3,34.9,29.85,NE,45,2.6,3.1,81,0.00,,,0.00,,2013-02-21 04:36:00,
2013-02-21 05:41:00,40.3,34.9,29.85,NE,45,1.7,4.9,81,0.00,,,0.00,,2013-02-21 04:41:00,
2013-02-21 05:46:00,40.3,34.9,29.88,NE,45,3.1,5.3,81,0.00,,,0.00,,2013-02-21 04:46:00,
2013-02-21 05:51:00,40.3,34.9,29.88,NNE,22,1.7,2.6,81,0.00,,,0.00,,2013-02-21 04:51:00,
2013-02-21 05:56:00,40.1,34.7,29.88,NE,45,2.2,5.3,81,0.00,,,0.00,,2013-02-21 04:56:00,
2013-02-21 06:01:00,40.1,34.7,29.88,NE,45,3.1,4.0,81,0.00,,,0.00,,2013-02-21 05:01:00,
2013-02-21 06:06:00,39.9,34.5,29.88,NE,45,2.2,4.0,81,0.00,,,0.00,,2013-02-21 05:06:00,
2013-02-21 06:11:00,39.9,34.5,29.88,NE,45,3.1,3.1,81,0.00,,,0.00,,2013-02-21 05:11:00,
2013-02-21 06:21:00,39.9,34.5,29.85,NE,45,3.5,4.4,81,0.00,,,0.00,,2013-02-21 05:21:00,
2013-02-21 06:26:00,39.9,34.5,29.85,NE,45,4.0,6.2,81,0.00,,,0.00,,2013-02-21 05:26:00,
2013-02-21 06:31:00,39.7,34.3,29.85,NE,45,4.4,4.9,81,0.00,,,0.00,,2013-02-21 05:31:00,
2013-02-21 06:36:00,39.9,34.7,29.88,ENE,67,4.0,4.9,82,0.00,,,0.00,,2013-02-21 05:36:00,
2013-02-21 06:41:00,39.9,34.5,29.88,NE,45,4.9,4.9,81,0.00,,,0.00,,2013-02-21 05:41:00,
2013-02-21 06:46:00,39.7,34.3,29.85,NE,45,4.4,4.4,81,0.00,,,0.00,,2013-02-21 05:46:00,
2013-02-21 06:51:00,39.7,34.3,29.85,NE,45,3.5,3.5,81,0.00,,,0.00,,2013-02-21 05:51:00,
2013-02-21 06:56:00,39.7,34.3,29.85,NE,45,4.0,5.3,81,0.00,,,0.00,,2013-02-21 05:56:00,
2013-02-21 07:01:00,39.6,34.2,29.85,NE,45,3.5,3.5,81,0.00,,,0.00,,2013-02-21 06:01:00,
2013-02-21 07:06:00,39.6,34.2,29.85,NE,45,4.0,4.9,81,0.00,,,0.00,,2013-02-21 06:06:00,
2013-02-21 07:11:00,39.6,34.3,29.85,NE,45,4.0,4.0,82,0.00,,,0.00,,2013-02-21 06:11:00,
2013-02-21 07:16:00,39.6,34.3,29.85,NE,45,3.5,4.4,82,0.00,,,0.00,,2013-02-21 06:16:00,
2013-02-21 07:21:00,39.7,34.5,29.85,NE,45,2.6,4.9,82,0.00,,,0.00,,2013-02-21 06:21:00,
2013-02-21 07:26:00,39.7,34.3,29.85,North,0,2.2,4.9,81,0.00,,,0.00,,2013-02-21 06:26:00,
2013-02-21 07:31:00,39.7,34.3,29.85,NE,45,3.1,3.1,81,0.00,,,0.00,,2013-02-21 06:31:00,
2013-02-21 07:36:00,39.7,34.3,29.85,NE,45,3.5,5.8,81,0.00,,,0.00,,2013-02-21 06:36:00,
2013-02-21 07:41:00,39.9,34.7,29.85,NE,45,3.5,5.8,82,0.00,,,0.00,,2013-02-21 06:41:00,
2013-02-21 07:46:00,40.1,34.7,29.85,NE,45,4.0,4.0,81,0.00,,,0.00,,2013-02-21 06:46:00,
2013-02-21 07:51:00,40.1,34.7,29.85,NE,45,4.0,4.0,81,0.00,,,0.00,,2013-02-21 06:51:00,
2013-02-21 07:56:00,40.3,34.9,29.88,NE,45,4.0,4.0,81,0.00,,,0.00,,2013-02-21 06:56:00,
2013-02-21 08:01:00,40.5,35.1,29.88,NE,45,4.0,4.9,81,0.00,,,0.00,,2013-02-21 07:01:00,
2013-02-21 08:06:00,40.8,35.4,29.88,NE,45,3.1,4.4,81,0.00,,,0.00,,2013-02-21 07:06:00,
2013-02-21 08:11:00,41.0,35.6,29.88,NE,45,2.6,3.1,81,0.00,,,0.00,,2013-02-21 07:11:00,
2013-02-21 08:16:00,41.2,35.8,29.88,NE,45,1.7,5.3,81,0.00,,,0.00,,2013-02-21 07:16:00,
2013-02-21 08:21:00,41.5,35.8,29.88,NE,45,3.5,4.4,80,0.00,,,0.00,,2013-02-21 07:21:00,
2013-02-21 08:26:00,41.5,35.8,29.85,NNE,22,4.0,5.8,80,0.00,,,0.00,,2013-02-21 07:26:00,
2013-02-21 08:31:00,41.9,36.1,29.85,North,0,3.1,5.3,80,0.00,,,0.00,,2013-02-21 07:31:00,
2013-02-21 08:36:00,42.3,36.5,29.88,NE,45,1.3,3.1,80,0.00,,,0.00,,2013-02-21 07:36:00,
2013-02-21 08:41:00,42.6,36.5,29.88,NE,45,2.6,5.3,79,0.00,,,0.00,,2013-02-21 07:41:00,
2013-02-21 08:46:00,42.8,36.7,29.88,NE,45,3.1,4.0,79,0.00,,,0.00,,2013-02-21 07:46:00,
2013-02-21 08:51:00,43.2,36.7,29.88,North,0,2.6,3.5,78,0.00,,,0.00,,2013-02-21 07:51:00,
2013-02-21 08:56:00,43.3,36.5,29.88,NE,45,2.6,6.2,77,0.00,,,0.00,,2013-02-21 07:56:00,
2013-02-21 09:01:00,43.7,36.9,29.88,NE,45,4.0,4.9,77,0.00,,,0.00,,2013-02-21 08:01:00,
2013-02-21 09:06:00,44.1,37.2,29.88,NE,45,2.6,4.9,77,0.00,,,0.00,,2013-02-21 08:06:00,
2013-02-21 09:11:00,44.2,37.0,29.88,NE,45,4.0,6.2,76,0.00,,,0.00,,2013-02-21 08:11:00,
2013-02-21 09:16:00,44.8,37.6,29.88,NE,45,4.4,4.4,76,0.00,,,0.00,,2013-02-21 08:16:00,
2013-02-21 09:21:00,45.3,37.8,29.88,NE,45,3.1,4.0,75,0.00,,,0.00,,2013-02-21 08:21:00,
2013-02-21 09:26:00,45.5,37.6,29.88,NNE,22,4.0,4.0,74,0.00,,,0.00,,2013-02-21 08:26:00,
2013-02-21 09:31:00,45.9,37.9,29.88,NNE,22,3.5,3.5,74,0.00,,,0.00,,2013-02-21 08:31:00,
2013-02-21 09:36:00,46.0,37.8,29.85,NE,45,3.1,3.1,73,0.00,,,0.00,,2013-02-21 08:36:00,
2013-02-21 09:41:00,46.2,37.9,29.85,NE,45,4.0,4.9,73,0.00,,,0.00,,2013-02-21 08:41:00,
2013-02-21 09:46:00,46.4,37.8,29.85,NE,45,3.5,4.9,72,0.00,,,0.00,,2013-02-21 08:46:00,
2013-02-21 09:51:00,46.6,37.6,29.85,NE,45,4.0,5.8,71,0.00,,,0.00,,2013-02-21 08:51:00,
2013-02-21 09:56:00,47.1,38.1,29.85,NNW,337,1.7,4.4,71,0.00,,,0.00,,2013-02-21 08:56:00,
2013-02-21 10:01:00,47.3,38.3,29.85,NE,45,2.2,4.4,71,0.00,,,0.00,,2013-02-21 09:01:00,
2013-02-21 10:06:00,47.7,38.7,29.88,NE,45,1.3,1.3,71,0.00,,,0.00,,2013-02-21 09:06:00,
2013-02-21 10:11:00,48.2,39.2,29.88,North,0,1.7,1.7,71,0.00,,,0.00,,2013-02-21 09:11:00,
2013-02-21 10:16:00,48.6,39.2,29.85,NE,45,1.3,1.3,70,0.00,,,0.00,,2013-02-21 09:16:00,
2013-02-21 10:21:00,48.7,38.8,29.85,NE,45,0.8,2.6,69,0.00,,,0.00,,2013-02-21 09:21:00,
2013-02-21 10:26:00,48.9,39.0,29.88,NW,315,1.7,4.0,69,0.00,,,0.00,,2013-02-21 09:26:00,
2013-02-21 10:31:00,49.5,39.2,29.88,NW,315,1.3,4.0,68,0.00,,,0.00,,2013-02-21 09:31:00,
2013-02-21 10:36:00,50.0,39.4,29.85,NE,45,1.3,1.7,67,0.00,,,0.00,,2013-02-21 09:36:00,
2013-02-21 10:41:00,50.9,40.6,29.85,East,90,0.0,0.8,68,0.00,,,0.00,,2013-02-21 09:41:00,
2013-02-21 10:46:00,51.3,40.6,29.85,NW,315,0.8,2.6,67,0.00,,,0.00,,2013-02-21 09:46:00,
2013-02-21 10:51:00,51.1,39.6,29.85,North,0,1.3,1.7,65,0.00,,,0.00,,2013-02-21 09:51:00,
2013-02-21 10:56:00,51.3,39.7,29.88,North,0,1.7,2.6,65,0.00,,,0.00,,2013-02-21 09:56:00,
2013-02-21 11:01:00,51.6,40.1,29.88,North,0,1.3,2.6,65,0.00,,,0.00,,2013-02-21 10:01:00,
2013-02-21 11:06:00,52.0,40.5,29.88,NW,315,0.4,0.4,65,0.00,,,0.00,,2013-02-21 10:06:00,
2013-02-21 11:11:00,52.3,40.5,29.88,NE,45,0.0,0.0,64,0.00,,,0.00,,2013-02-21 10:11:00,
2013-02-21 11:16:00,52.9,40.5,29.85,NE,45,0.8,0.8,63,0.00,,,0.00,,2013-02-21 10:16:00,
2013-02-21 11:21:00,53.2,40.8,29.85,NE,45,0.4,0.4,63,0.00,,,0.00,,2013-02-21 10:21:00,
2013-02-21 11:26:00,54.1,41.7,29.88,NE,45,0.4,0.0,63,0.00,,,0.00,,2013-02-21 10:26:00,
2013-02-21 11:31:00,54.7,42.3,29.88,SSW,202,0.8,1.7,63,0.00,,,0.00,,2013-02-21 10:31:00,
2013-02-21 11:36:00,54.5,41.7,29.85,SE,135,1.3,1.3,62,0.00,,,0.00,,2013-02-21 10:36:00,
2013-02-21 11:41:00,55.2,42.8,29.85,South,180,0.0,1.3,63,0.00,,,0.00,,2013-02-21 10:41:00,
2013-02-21 11:46:00,55.8,42.4,29.88,SE,135,2.2,2.2,61,0.00,,,0.00,,2013-02-21 10:46:00,
2013-02-21 11:51:00,55.8,41.9,29.88,SSW,202,1.7,3.1,60,0.00,,,0.00,,2013-02-21 10:51:00,
2013-02-21 11:56:00,55.8,41.9,29.88,SW,225,0.8,1.3,60,0.00,,,0.00,,2013-02-21 10:56:00,
2013-02-21 12:01:00,55.8,41.5,29.88,SW,225,1.3,1.3,59,0.00,,,0.00,,2013-02-21 11:01:00,
2013-02-21 12:06:00,55.8,41.5,29.88,South,180,0.8,1.3,59,0.00,,,0.00,,2013-02-21 11:06:00,
2013-02-21 12:11:00,56.5,42.6,29.88,SW,225,0.8,1.7,60,0.00,,,0.00,,2013-02-21 11:11:00,
2013-02-21 12:16:00,56.3,41.2,29.85,SW,225,2.6,5.3,57,0.00,,,0.00,,2013-02-21 11:16:00,
2013-02-21 12:21:00,55.9,41.4,29.85,SW,225,3.1,4.4,58,0.00,,,0.00,,2013-02-21 11:21:00,
2013-02-21 12:26:00,55.9,41.4,29.85,SW,225,3.1,4.4,58,0.00,,,0.00,,2013-02-21 11:26:00,
2013-02-21 12:31:00,56.1,41.9,29.85,SW,225,0.8,4.4,59,0.00,,,0.00,,2013-02-21 11:31:00,
2013-02-21 12:36:00,56.5,42.3,29.82,SW,225,2.6,4.4,59,0.00,,,0.00,,2013-02-21 11:36:00,
2013-02-21 12:41:00,56.7,41.9,29.82,West,270,2.2,3.5,58,0.00,,,0.00,,2013-02-21 11:41:00,
2013-02-21 12:46:00,56.7,41.9,29.82,SW,225,2.6,4.0,58,0.00,,,0.00,,2013-02-21 11:46:00,
2013-02-21 12:51:00,56.7,41.5,29.82,SW,225,4.9,4.9,57,0.00,,,0.00,,2013-02-21 11:51:00,
2013-02-21 12:56:00,56.7,41.0,29.85,SW,225,2.6,4.0,56,0.00,,,0.00,,2013-02-21 11:56:00,
2013-02-21 13:01:00,56.8,41.2,29.85,SE,135,4.4,4.4,56,0.00,,,0.00,,2013-02-21 12:01:00,
2013-02-21 13:06:00,57.0,39.0,29.82,SW,225,3.5,3.5,51,0.00,,,0.00,,2013-02-21 12:06:00,
2013-02-21 13:11:00,56.8,38.3,29.82,South,180,3.1,5.3,50,0.00,,,0.00,,2013-02-21 12:11:00,
2013-02-21 13:16:00,57.0,39.0,29.82,SW,225,1.7,2.6,51,0.00,,,0.00,,2013-02-21 12:16:00,
2013-02-21 13:21:00,57.6,39.9,29.82,South,180,0.8,1.3,52,0.00,,,0.00,,2013-02-21 12:21:00,
2013-02-21 13:26:00,57.7,39.6,29.82,South,180,3.1,3.1,51,0.00,,,0.00,,2013-02-21 12:26:00,
2013-02-21 13:31:00,57.9,39.7,29.82,SE,135,1.3,1.7,51,0.00,,,0.00,,2013-02-21 12:31:00,
2013-02-21 13:36:00,57.7,41.2,29.82,SW,225,4.9,8.0,54,0.00,,,0.00,,2013-02-21 12:36:00,
2013-02-21 13:41:00,57.6,41.0,29.82,SW,225,3.5,4.9,54,0.00,,,0.00,,2013-02-21 12:41:00,
2013-02-21 13:46:00,57.2,41.0,29.82,WSW,247,4.0,4.0,55,0.00,,,0.00,,2013-02-21 12:46:00,
2013-02-21 13:51:00,57.4,41.7,29.82,NW,315,2.2,5.8,56,0.00,,,0.00,,2013-02-21 12:51:00,
2013-02-21 13:56:00,57.6,41.9,29.82,NW,315,3.1,4.9,56,0.00,,,0.00,,2013-02-21 12:56:00,
2013-02-21 14:01:00,57.7,42.1,29.82,SW,225,4.4,4.4,56,0.00,,,0.00,,2013-02-21 13:01:00,
2013-02-21 14:06:00,57.7,41.5,29.79,South,180,5.3,5.3,55,0.00,,,0.00,,2013-02-21 13:06:00,
2013-02-21 14:11:00,57.7,42.1,29.79,SW,225,4.9,0.0,56,0.00,,,0.00,,2013-02-21 13:11:00,
2013-02-21 14:21:00,57.2,41.5,29.82,SW,225,7.6,8.5,56,0.00,,,0.00,,2013-02-21 13:21:00,
2013-02-21 14:26:00,56.8,40.8,29.82,SW,225,7.6,8.9,55,0.00,,,0.00,,2013-02-21 13:26:00,
2013-02-21 14:31:00,57.0,41.4,29.82,SW,225,7.1,7.1,56,0.00,,,0.00,,2013-02-21 13:31:00,
2013-02-21 14:36:00,57.4,42.3,29.82,SW,225,3.5,11.1,57,0.00,,,0.00,,2013-02-21 13:36:00,
2013-02-21 14:41:00,57.6,42.3,29.82,SW,225,4.4,11.1,57,0.00,,,0.00,,2013-02-21 13:41:00,
2013-02-21 14:46:00,57.7,42.4,29.82,SW,225,4.0,8.5,57,0.00,,,0.00,,2013-02-21 13:46:00,
2013-02-21 14:51:00,57.6,42.3,29.82,SW,225,6.2,8.9,57,0.00,,,0.00,,2013-02-21 13:51:00,
2013-02-21 14:56:00,57.0,42.3,29.79,SW,225,5.3,8.9,58,0.00,,,0.00,,2013-02-21 13:56:00,
2013-02-21 15:01:00,57.0,42.8,29.79,South,180,4.9,4.9,59,0.00,,,0.00,,2013-02-21 14:01:00,
2013-02-21 15:06:00,56.5,42.6,29.82,South,180,7.1,11.1,60,0.00,,,0.00,,2013-02-21 14:06:00,
2013-02-21 15:11:00,55.8,42.4,29.82,SW,225,6.7,8.9,61,0.00,,,0.00,,2013-02-21 14:11:00,
2013-02-21 15:16:00,55.6,42.6,29.79,SW,225,3.1,5.3,62,0.00,,,0.00,,2013-02-21 14:16:00,
2013-02-21 15:21:00,55.6,43.2,29.79,SW,225,5.3,7.6,63,0.00,,,0.00,,2013-02-21 14:21:00,
2013-02-21 15:26:00,55.6,43.5,29.76,SW,225,5.8,7.6,64,0.00,,,0.00,,2013-02-21 14:26:00,
2013-02-21 15:31:00,55.4,43.3,29.76,SW,225,4.9,0.0,64,0.00,,,0.00,,2013-02-21 14:31:00,
2013-02-21 15:36:00,55.2,43.2,29.79,SW,225,4.4,6.2,64,0.00,,,0.00,,2013-02-21 14:36:00,
2013-02-21 15:41:00,55.2,43.9,29.79,SW,225,4.9,6.2,66,0.00,,,0.00,,2013-02-21 14:41:00,
2013-02-21 15:46:00,55.2,43.9,29.82,SW,225,3.5,5.3,66,0.00,,,0.00,,2013-02-21 14:46:00,
2013-02-21 15:51:00,54.9,43.7,29.82,SW,225,3.5,5.3,66,0.00,,,0.00,,2013-02-21 14:51:00,
2013-02-21 15:56:00,55.2,43.9,29.82,SSW,202,4.0,4.0,66,0.00,,,0.00,,2013-02-21 14:56:00,
2013-02-21 16:01:00,55.4,43.7,29.82,SE,135,1.3,6.2,65,0.00,,,0.00,,2013-02-21 15:01:00,
2013-02-21 16:06:00,55.4,43.7,29.82,SE,135,2.6,4.0,65,0.00,,,0.00,,2013-02-21 15:06:00,
2013-02-21 16:11:00,55.4,43.7,29.82,SW,225,5.3,9.8,65,0.00,,,0.00,,2013-02-21 15:11:00,
2013-02-21 16:16:00,54.9,43.2,29.79,SW,225,7.6,9.8,65,0.00,,,0.00,,2013-02-21 15:16:00,
2013-02-21 16:21:00,54.7,43.0,29.79,SW,225,4.4,4.4,65,0.00,,,0.00,,2013-02-21 15:21:00,
2013-02-21 16:26:00,54.9,43.7,29.82,SW,225,3.1,4.4,66,0.00,,,0.00,,2013-02-21 15:26:00,
2013-02-21 16:36:00,54.7,43.5,29.79,SW,225,6.2,7.6,66,0.00,,,0.00,,2013-02-21 15:36:00,
2013-02-21 16:41:00,54.5,43.3,29.79,SSW,202,4.9,4.9,66,0.00,,,0.00,,2013-02-21 15:41:00,
2013-02-21 16:51:00,54.3,42.6,29.79,SW,225,4.0,6.2,65,0.00,,,0.00,,2013-02-21 15:51:00,
2013-02-21 16:56:00,54.3,42.6,29.76,SW,225,4.0,6.2,65,0.00,,,0.00,,2013-02-21 15:56:00,
2013-02-21 17:01:00,54.3,43.2,29.76,South,180,3.5,3.5,66,0.00,,,0.00,,2013-02-21 16:01:00,
2013-02-21 17:06:00,54.3,43.2,29.79,SW,225,4.0,4.4,66,0.00,,,0.00,,2013-02-21 16:06:00,
2013-02-21 17:11:00,54.1,43.0,29.79,SW,225,2.6,3.1,66,0.00,,,0.00,,2013-02-21 16:11:00,
2013-02-21 17:16:00,54.1,43.0,29.79,SW,225,3.1,3.1,66,0.00,,,0.00,,2013-02-21 16:16:00,
2013-02-21 17:21:00,54.1,43.0,29.79,SW,225,3.1,3.5,66,0.00,,,0.00,,2013-02-21 16:21:00,
2013-02-21 17:26:00,54.1,43.3,29.79,SW,225,0.8,4.4,67,0.00,,,0.00,,2013-02-21 16:26:00,
2013-02-21 17:31:00,54.1,43.3,29.79,South,180,1.7,1.7,67,0.00,,,0.00,,2013-02-21 16:31:00,
2013-02-21 17:36:00,54.1,43.3,29.79,South,180,0.8,1.7,67,0.00,,,0.00,,2013-02-21 16:36:00,
2013-02-21 17:41:00,54.0,43.2,29.79,South,180,3.1,4.4,67,0.00,,,0.00,,2013-02-21 16:41:00,
2013-02-21 17:46:00,54.0,43.2,29.79,South,180,3.5,4.4,67,0.00,,,0.00,,2013-02-21 16:46:00,
2013-02-21 17:51:00,53.8,43.0,29.79,South,180,3.1,4.4,67,0.00,,,0.00,,2013-02-21 16:51:00,
2013-02-21 17:56:00,53.6,42.8,29.79,South,180,2.2,4.4,67,0.00,,,0.00,,2013-02-21 16:56:00,
2013-02-21 18:01:00,53.4,42.6,29.79,SE,135,1.7,3.1,67,0.00,,,0.00,,2013-02-21 17:01:00,
2013-02-21 18:06:00,53.4,42.6,29.79,South,180,1.7,1.7,67,0.00,,,0.00,,2013-02-21 17:06:00,
2013-02-21 18:11:00,53.2,42.4,29.79,SE,135,1.7,3.5,67,0.00,,,0.00,,2013-02-21 17:11:00,
2013-02-21 18:16:00,53.2,42.8,29.79,SE,135,2.2,3.5,68,0.00,,,0.00,,2013-02-21 17:16:00,
2013-02-21 18:21:00,53.1,42.6,29.79,SE,135,3.1,3.5,68,0.00,,,0.00,,2013-02-21 17:21:00,
2013-02-21 18:26:00,53.1,42.6,29.79,South,180,1.7,2.2,68,0.00,,,0.00,,2013-02-21 17:26:00,
2013-02-21 18:31:00,53.1,42.6,29.79,South,180,1.3,2.2,68,0.00,,,0.00,,2013-02-21 17:31:00,
2013-02-21 18:36:00,53.1,42.6,29.82,South,180,2.6,2.6,68,0.00,,,0.00,,2013-02-21 17:36:00,
2013-02-21 18:41:00,52.9,42.4,29.82,SE,135,2.2,2.6,68,0.00,,,0.00,,2013-02-21 17:41:00,
2013-02-21 18:46:00,52.9,42.4,29.79,SE,135,1.7,3.1,68,0.00,,,0.00,,2013-02-21 17:46:00,
2013-02-21 18:51:00,52.7,42.8,29.79,SE,135,2.6,4.0,69,0.00,,,0.00,,2013-02-21 17:51:00,
2013-02-21 18:56:00,52.7,42.8,29.79,SE,135,2.2,3.1,69,0.00,,,0.00,,2013-02-21 17:56:00,
2013-02-21 19:01:00,52.7,42.8,29.79,SE,135,3.1,3.1,69,0.00,,,0.00,,2013-02-21 18:01:00,
2013-02-21 19:06:00,52.5,42.6,29.79,SE,135,1.7,4.9,69,0.00,,,0.00,,2013-02-21 18:06:00,
2013-02-21 19:11:00,52.3,42.4,29.79,SE,135,1.7,1.7,69,0.00,,,0.00,,2013-02-21 18:11:00,
2013-02-21 19:16:00,52.3,42.4,29.79,SE,135,1.7,1.7,69,0.00,,,0.00,,2013-02-21 18:16:00,
2013-02-21 19:21:00,52.3,42.8,29.79,ESE,112,1.7,2.6,70,0.00,,,0.00,,2013-02-21 18:21:00,
2013-02-21 19:26:00,52.2,42.6,29.79,East,90,2.2,2.6,70,0.00,,,0.00,,2013-02-21 18:26:00,
2013-02-21 19:31:00,52.2,42.6,29.79,SE,135,2.2,2.2,70,0.00,,,0.00,,2013-02-21 18:31:00,
2013-02-21 19:36:00,52.0,42.4,29.76,SE,135,0.8,0.8,70,0.00,,,0.00,,2013-02-21 18:36:00,
2013-02-21 19:46:00,52.0,42.4,29.79,SE,135,1.3,1.3,70,0.00,,,0.00,,2013-02-21 18:46:00,
2013-02-21 19:51:00,52.0,42.4,29.79,SE,135,1.3,1.3,70,0.00,,,0.00,,2013-02-21 18:51:00,
2013-02-21 19:56:00,51.8,42.6,29.79,SE,135,2.6,4.4,71,0.00,,,0.00,,2013-02-21 18:56:00,
2013-02-21 20:01:00,51.8,42.6,29.79,ESE,112,2.6,2.6,71,0.00,,,0.00,,2013-02-21 19:01:00,
2013-02-21 20:06:00,51.8,42.6,29.79,SE,135,1.7,4.0,71,0.00,,,0.00,,2013-02-21 19:06:00,
2013-02-21 20:11:00,51.8,42.6,29.79,ESE,112,2.6,4.9,71,0.00,,,0.00,,2013-02-21 19:11:00,
2013-02-21 20:16:00,51.6,42.4,29.79,ESE,112,3.1,3.5,71,0.00,,,0.00,,2013-02-21 19:16:00,
2013-02-21 20:21:00,51.6,42.4,29.79,SE,135,3.5,3.5,71,0.00,,,0.00,,2013-02-21 19:21:00,
2013-02-21 20:26:00,51.6,42.8,29.79,ESE,112,3.1,5.3,72,0.00,,,0.00,,2013-02-21 19:26:00,
2013-02-21 20:31:00,51.6,42.8,29.79,SSE,157,1.7,2.2,72,0.00,,,0.00,,2013-02-21 19:31:00,
2013-02-21 20:36:00,51.6,42.8,29.79,SE,135,3.1,4.9,72,0.00,,,0.00,,2013-02-21 19:36:00,
2013-02-21 20:41:00,51.6,42.8,29.79,SE,135,0.8,3.5,72,0.00,,,0.00,,2013-02-21 19:41:00,
2013-02-21 20:46:00,51.4,42.6,29.79,SE,135,2.2,3.1,72,0.00,,,0.00,,2013-02-21 19:46:00,
2013-02-21 20:51:00,51.4,42.6,29.79,SE,135,3.5,4.0,72,0.00,,,0.00,,2013-02-21 19:51:00,
2013-02-21 20:56:00,51.4,42.6,29.79,SW,225,3.1,3.1,72,0.00,,,0.00,,2013-02-21 19:56:00,
2013-02-21 21:01:00,51.4,42.6,29.79,SE,135,4.4,4.9,72,0.00,,,0.00,,2013-02-21 20:01:00,
2013-02-21 21:06:00,51.3,42.4,29.79,SE,135,2.6,2.6,72,0.00,,,0.00,,2013-02-21 20:06:00,
2013-02-21 21:11:00,51.3,42.4,29.79,NE,45,3.1,4.4,72,0.00,,,0.00,,2013-02-21 20:11:00,
2013-02-21 21:16:00,51.3,42.8,29.76,ESE,112,3.1,3.1,73,0.00,,,0.00,,2013-02-21 20:16:00,
2013-02-21 21:21:00,51.3,42.8,29.76,East,90,3.1,3.1,73,0.00,,,0.00,,2013-02-21 20:21:00,
2013-02-21 21:26:00,51.3,42.8,29.76,SE,135,3.1,5.3,73,0.00,,,0.00,,2013-02-21 20:26:00,
2013-02-21 21:31:00,51.3,42.8,29.76,SE,135,3.1,4.9,73,0.00,,,0.00,,2013-02-21 20:31:00,
2013-02-21 21:36:00,51.3,42.8,29.79,SE,135,5.3,5.8,73,0.00,,,0.00,,2013-02-21 20:36:00,
2013-02-21 21:41:00,51.3,42.8,29.79,ESE,112,3.5,8.9,73,0.00,,,0.00,,2013-02-21 20:41:00,
2013-02-21 21:46:00,51.4,43.0,29.79,SE,135,3.5,4.0,73,0.00,,,0.00,,2013-02-21 20:46:00,
2013-02-21 21:51:00,51.4,43.0,29.79,SE,135,3.5,4.0,73,0.00,,,0.00,,2013-02-21 20:51:00,
2013-02-21 21:56:00,51.4,43.0,29.76,SE,135,3.5,4.0,73,0.00,,,0.00,,2013-02-21 20:56:00,
2013-02-21 22:01:00,51.4,43.0,29.76,SE,135,2.2,2.2,73,0.00,,,0.00,,2013-02-21 21:01:00,
2013-02-21 22:06:00,51.4,43.0,29.76,South,180,1.3,1.3,73,0.00,,,0.00,,2013-02-21 21:06:00,
2013-02-21 22:11:00,51.4,43.3,29.76,SE,135,2.6,2.6,74,0.00,,,0.00,,2013-02-21 21:11:00,
2013-02-21 22:16:00,51.4,43.7,29.76,SE,135,4.0,4.0,75,0.00,,,0.00,,2013-02-21 21:16:00,
2013-02-21 22:21:00,51.3,43.5,29.76,SE,135,3.1,3.1,75,0.00,,,0.00,,2013-02-21 21:21:00,
2013-02-21 22:26:00,51.3,43.5,29.76,SE,135,3.1,4.9,75,0.00,,,0.00,,2013-02-21 21:26:00,
2013-02-21 22:31:00,51.1,43.7,29.76,SE,135,3.5,4.4,76,0.00,,,0.00,,2013-02-21 21:31:00,
2013-02-21 22:36:00,51.1,43.7,29.76,SE,135,3.5,4.0,76,0.00,,,0.00,,2013-02-21 21:36:00,
2013-02-21 22:41:00,51.1,43.7,29.76,SE,135,3.5,8.5,76,0.00,,,0.00,,2013-02-21 21:41:00,
2013-02-21 22:46:00,51.1,44.1,29.73,SE,135,4.0,4.9,77,0.00,,,0.00,,2013-02-21 21:46:00,
2013-02-21 22:51:00,51.1,43.7,29.73,SE,135,4.0,5.8,76,0.00,,,0.00,,2013-02-21 21:51:00,
2013-02-21 22:56:00,50.9,43.9,29.73,South,180,2.6,4.0,77,0.00,,,0.00,,2013-02-21 21:56:00,
2013-02-21 23:01:00,50.7,43.7,29.73,SE,135,2.2,2.2,77,0.00,,,0.00,,2013-02-21 22:01:00,
2013-02-21 23:06:00,50.7,43.7,29.73,SE,135,1.3,3.1,77,0.00,,,0.00,,2013-02-21 22:06:00,
2013-02-21 23:11:00,50.7,43.7,29.73,SE,135,2.2,2.6,77,0.00,,,0.00,,2013-02-21 22:11:00,
2013-02-21 23:16:00,50.7,44.1,29.76,South,180,2.2,3.5,78,0.00,,,0.00,,2013-02-21 22:16:00,
2013-02-21 23:21:00,50.5,43.9,29.76,South,180,2.6,4.0,78,0.00,,,0.00,,2013-02-21 22:21:00,
2013-02-21 23:26:00,50.7,44.1,29.73,SE,135,4.0,5.3,78,0.00,,,0.00,,2013-02-21 22:26:00,
2013-02-21 23:31:00,50.5,44.2,29.73,SE,135,4.9,6.2,79,0.00,,,0.00,,2013-02-21 22:31:00,
2013-02-21 23:36:00,50.2,43.9,29.73,SE,135,3.1,5.3,79,0.02,,,0.02,,2013-02-21 22:36:00,
2013-02-21 23:41:00,49.8,43.9,29.73,SSE,157,0.4,1.3,80,0.06,,,0.06,,2013-02-21 22:41:00,
2013-02-21 23:51:00,49.6,43.9,29.73,SE,135,1.3,0.0,81,0.06,,,0.06,,2013-02-21 22:51:00,
2013-02-21 23:56:00,49.6,43.9,29.73,SE,135,2.2,2.2,81,0.06,,,0.06,,2013-02-21 22:56:00,